• In Moldova, Republic
  • List of Countries
  • For 7 days
  • Water Temperature
  • Satellite Maps
  • Weather Map
  • Weather Widgets
  • user-avatar
    Login

    Hourly Weather Berat

    Today, 21 July, Friday

    Time Temperature Precipitation Wind Pressure Humidity
    00:00 +24°C° 0 mm 1 mps 743 mmHg 64%
    01:00 +24°C° 0 mm 1 mps 743 mmHg 63%
    02:00 +23°C° 0 mm 1 mps 743 mmHg 64%
    03:00 +23°C° 0 mm 1 mps 743 mmHg 64%
    04:00 +23°C° 0 mm 1 mps 743 mmHg 65%
    05:00 +25°C° 0 mm 1 mps 743 mmHg 61%
    06:00 +27°C° 0 mm 1 mps 743 mmHg 56%
    07:00 +29°C° 0 mm 1 mps 744 mmHg 52%
    08:00 +30°C° 0 mm 1 mps 744 mmHg 47%
    09:00 +32°C° 0 mm 1 mps 744 mmHg 42%
    10:00 +35°C° 0 mm 2 mps 744 mmHg 38%
    11:00 +35°C° 0 mm 2 mps 744 mmHg 36%
    12:00 +36°C° 0 mm 3 mps 744 mmHg 34%
    13:00 +37°C° 0 mm 3 mps 743 mmHg 32%
    14:00 +36°C° 0 mm 3 mps 743 mmHg 34%
    15:00 +36°C° 0 mm 3 mps 743 mmHg 35%
    16:00 +36°C° 0 mm 3 mps 743 mmHg 36%
    17:00 +34°C° 0 mm 3 mps 743 mmHg 43%
    18:00 +30°C° 0 mm 2 mps 743 mmHg 49%
    19:00 +28°C° 0 mm 1 mps 743 mmHg 56%
    20:00 +28°C° 0 mm 1 mps 743 mmHg 57%
    21:00 +27°C° 0 mm 1 mps 744 mmHg 59%
    22:00 +26°C° 0 mm 1 mps 744 mmHg 61%
    23:00 +26°C° 0 mm 1 mps 744 mmHg 61%

    Tomorrow, 22 July, Saturday

    Time Temperature Precipitation Wind Pressure Humidity
    00:00 +26°C° 0 mm 1 mps 744 mmHg 61%
    01:00 +25°C° 0 mm 1 mps 744 mmHg 61%
    02:00 +25°C° 0 mm 1 mps 744 mmHg 61%
    03:00 +25°C° 0 mm 1 mps 744 mmHg 61%
    04:00 +25°C° 0 mm 1 mps 744 mmHg 61%
    05:00 +27°C° 0 mm 1 mps 744 mmHg 56%
    06:00 +29°C° 0 mm 1 mps 745 mmHg 52%
    07:00 +28°C° 0 mm 0 mps 745 mmHg 47%
    08:00 +32°C° 0 mm 1 mps 745 mmHg 42%
    09:00 +34°C° 0 mm 1 mps 745 mmHg 38%
    10:00 +36°C° 0 mm 2 mps 745 mmHg 33%
    11:00 +37°C° 0 mm 2 mps 745 mmHg 31%
    12:00 +38°C° 0 mm 3 mps 745 mmHg 30%
    13:00 +40°C° 0 mm 4 mps 745 mmHg 28%
    14:00 +38°C° 0 mm 4 mps 744 mmHg 29%
    15:00 +38°C° 0 mm 4 mps 744 mmHg 30%
    16:00 +37°C° 0 mm 4 mps 744 mmHg 31%
    17:00 +35°C° 0 mm 3 mps 744 mmHg 36%
    18:00 +32°C° 0 mm 2 mps 744 mmHg 41%
    19:00 +29°C° 0 mm 1 mps 744 mmHg 46%
    20:00 +28°C° 0 mm 1 mps 744 mmHg 47%
    21:00 +28°C° 0 mm 1 mps 744 mmHg 47%
    22:00 +27°C° 0 mm 1 mps 745 mmHg 48%
    23:00 +27°C° 0 mm 1 mps 745 mmHg 47%

    Day after tomorrow, 23 July, Sunday

    Time Temperature Precipitation Wind Pressure Humidity
    00:00 +26°C° 0 mm 1 mps 744 mmHg 46%
    01:00 +26°C° 0 mm 1 mps 744 mmHg 45%
    02:00 +26°C° 0 mm 1 mps 744 mmHg 45%
    03:00 +26°C° 0 mm 1 mps 744 mmHg 44%
    04:00 +26°C° 0 mm 1 mps 743 mmHg 44%
    05:00 +28°C° 0 mm 1 mps 744 mmHg 42%
    06:00 +30°C° 0 mm 1 mps 744 mmHg 40%
    07:00 +32°C° 0 mm 1 mps 744 mmHg 37%
    08:00 +33°C° 0 mm 1 mps 744 mmHg 35%
    09:00 +36°C° 0 mm 2 mps 744 mmHg 32%
    10:00 +37°C° 0 mm 3 mps 744 mmHg 29%
    11:00 +38°C° 0 mm 3 mps 743 mmHg 28%
    12:00 +38°C° 0 mm 4 mps 743 mmHg 27%
    13:00 +40°C° 0 mm 4 mps 743 mmHg 27%
    14:00 +38°C° 0 mm 4 mps 743 mmHg 28%
    15:00 +38°C° 0 mm 4 mps 742 mmHg 29%
    16:00 +37°C° 0 mm 4 mps 742 mmHg 30%
    17:00 +35°C° 0 mm 3 mps 742 mmHg 36%
    18:00 +33°C° 0 mm 3 mps 742 mmHg 42%
    19:00 +29°C° 0 mm 2 mps 742 mmHg 47%
    20:00 +28°C° 0 mm 2 mps 742 mmHg 49%
    21:00 +27°C° 0 mm 2 mps 743 mmHg 51%
    22:00 +26°C° 0 mm 1 mps 743 mmHg 53%
    23:00 +26°C° 0 mm 1 mps 743 mmHg 53%

    24 July, Monday

    Time Temperature Precipitation Wind Pressure Humidity
    00:00 +25°C° 0 mm 1 mps 742 mmHg 53%
    01:00 +25°C° 0 mm 1 mps 742 mmHg 53%
    02:00 +25°C° 0 mm 1 mps 742 mmHg 52%
    03:00 +24°C° 0 mm 1 mps 741 mmHg 52%
    04:00 +24°C° 0 mm 1 mps 741 mmHg 51%
    05:00 +26°C° 0 mm 1 mps 741 mmHg 47%
    06:00 +28°C° 0 mm 1 mps 741 mmHg 43%
    07:00 +30°C° 0 mm 1 mps 742 mmHg 39%
    08:00 +32°C° 0 mm 1 mps 741 mmHg 35%
    09:00 +34°C° 0 mm 1 mps 741 mmHg 30%
    10:00 +37°C° 0 mm 2 mps 741 mmHg 26%
    11:00 +37°C° 0 mm 2 mps 741 mmHg 24%
    12:00 +38°C° 0 mm 3 mps 740 mmHg 22%
    13:00 +39°C° 0 mm 3 mps 740 mmHg 20%
    14:00 +39°C° 0 mm 3 mps 739 mmHg 22%
    15:00 +39°C° 0 mm 3 mps 739 mmHg 23%
    16:00 +38°C° 0 mm 3 mps 739 mmHg 24%
    17:00 +36°C° 0 mm 2 mps 738 mmHg 30%
    18:00 +32°C° 0 mm 2 mps 738 mmHg 35%
    19:00 +30°C° 0 mm 2 mps 738 mmHg 40%
    20:00 +29°C° 0 mm 2 mps 738 mmHg 42%
    21:00 +28°C° 0 mm 2 mps 738 mmHg 44%
    22:00 +27°C° 0 mm 3 mps 738 mmHg 46%
    23:00 +27°C° 0 mm 3 mps 738 mmHg 47%

    25 July, Tuesday

    Time Temperature Precipitation Wind Pressure Humidity
    00:00 +26°C° 0 mm 3 mps 738 mmHg 49%
    01:00 +26°C° 0 mm 4 mps 737 mmHg 51%
    02:00 +25°C° 0 mm 3 mps 737 mmHg 52%
    03:00 +25°C° 0 mm 3 mps 737 mmHg 53%
    04:00 +24°C° 0 mm 3 mps 737 mmHg 54%
    05:00 +26°C° 0 mm 3 mps 737 mmHg 53%
    06:00 +27°C° 0 mm 3 mps 737 mmHg 52%
    07:00 +28°C° 0 mm 3 mps 737 mmHg 51%
    08:00 +30°C° 0 mm 3 mps 737 mmHg 47%
    09:00 +31°C° 0 mm 3 mps 737 mmHg 43%
    10:00 +34°C° 0 mm 3 mps 737 mmHg 40%
    11:00 +34°C° 0 mm 4 mps 737 mmHg 38%
    12:00 +35°C° 0 mm 4 mps 737 mmHg 37%
    13:00 +35°C° 0 mm 4 mps 737 mmHg 36%
    14:00 +35°C° 0 mm 4 mps 737 mmHg 38%
    15:00 +34°C° 0 mm 4 mps 736 mmHg 41%
    16:00 +33°C° 0 mm 4 mps 736 mmHg 43%
    17:00 +30°C° 0 mm 3 mps 737 mmHg 50%
    18:00 +28°C° 0 mm 2 mps 737 mmHg 57%
    19:00 +27°C° 0 mm 1 mps 737 mmHg 64%
    20:00 +26°C° 0 mm 1 mps 737 mmHg 68%
    21:00 +25°C° 0 mm 1 mps 737 mmHg 72%
    22:00 +23°C° 0 mm 1 mps 738 mmHg 76%
    23:00 +23°C° 0 mm 1 mps 737 mmHg 76%

    26 July, Wednesday

    Time Temperature Precipitation Wind Pressure Humidity
    00:00 +23°C° 0 mm 1 mps 737 mmHg 77%
    01:00 +22°C° 0 mm 1 mps 737 mmHg 77%
    02:00 +22°C° 0 mm 1 mps 737 mmHg 77%
    03:00 +22°C° 0 mm 1 mps 737 mmHg 77%
    04:00 +22°C° 0 mm 1 mps 737 mmHg 77%
    05:00 +24°C° 0 mm 1 mps 737 mmHg 70%
    06:00 +25°C° 0 mm 1 mps 738 mmHg 63%
    07:00 +27°C° 0 mm 1 mps 738 mmHg 56%
    08:00 +29°C° 0 mm 2 mps 738 mmHg 51%
    09:00 +30°C° 0 mm 2 mps 738 mmHg 45%
    10:00 +33°C° 0 mm 3 mps 738 mmHg 40%
    11:00 +33°C° 0 mm 3 mps 738 mmHg 39%
    12:00 +34°C° 0 mm 3 mps 738 mmHg 38%
    13:00 +34°C° 0 mm 4 mps 738 mmHg 37%
    14:00 +34°C° 0 mm 4 mps 738 mmHg 40%
    15:00 +33°C° 0 mm 4 mps 738 mmHg 43%
    16:00 +33°C° 0 mm 4 mps 738 mmHg 46%
    17:00 +30°C° 0 mm 3 mps 738 mmHg 54%
    18:00 +28°C° 0 mm 2 mps 738 mmHg 61%
    19:00 +26°C° 0 mm 2 mps 738 mmHg 69%
    20:00 +25°C° 0.2 mm 1 mps 739 mmHg 74%
    21:00 +24°C° 0.2 mm 1 mps 739 mmHg 79%
    22:00 +23°C° 0.2 mm 1 mps 739 mmHg 84%
    23:00 +23°C° 0 mm 1 mps 739 mmHg 85%
    Show more